sat.trackr.live / text

‹ back to catalog

STARLINK-11146 [DTC]

NORAD 60729 · 2024-152K

PAYLOAD ACTIVE UNKNOWN

§ Identity

Operator
Country
US
Launch date
2024-08-28
Launch site
AFETR
Launch vehicle
Mass (kg)
RCS (m²)

Purposes: comms

External: N2YO · Heavens-Above · Gunter

§ Orbital elements

Epoch: 2026-05-25T03:08:17.346912Z

Period
91.74 min
Inclination
53.1586°
Eccentricity
0.0000949
Mean motion
15.69710261 rev/d
Perigee alt
359.1 km
Apogee alt
360.4 km
Semi-major
6,737.9 km
B*
8.2596e-6
RAAN
99.2218°
Arg perigee
78.0583°
Mean anomaly
282.0541°
Rev number
10,097

§ Raw data

STARLINK-11146 [DTC]1 60729U 24152K   26145.13075633  .00000412  00000+0  82596-5 0  99952 60729  53.1586  99.2218 0000949  78.0583 282.0541 15.69710261100975

JSON: /api/v1/satellites/60729 · /tle

For live sub-satellite position, see the globe view (requires WebGL).

§ Visibility from observer

Set your observer location to see the next 7 days of passes ≥ 10°. The values pass through the URL so the page stays shareable.

No JS? Fill the form by hand. The geolocation button needs JavaScript.